Temperature
5 5 6 6 6 6 6 8 9 10 10 10 10 9 8 7 6 6 6 6 5 5 5 5 6 6 6 6 6 6 6 6 6 5 5 5 5 5 5 5 5 5 5 5
4 5 5 5 6 6 7 7 8 8 9 9 8 8 7 7 6 6 6 5 5 5 5 5 5 6 6 6 6 6 5 5 5 5 5 5 5 5 5 5 5 5 5 4
5 4 5 6 6 5 6 6 7 8 9 7 7 7 7 6 6 6 5 5 5 5 5 5 6 6 6 6 6 5 5 5 5 5 5 5 5 5 5 5 5 4 4 4
4 4 5 7 6 6 6 5 6 6 7 6 6 6 6 5 5 5 5 5 5 5 5 5 5 6 6 6 5 5 5 5 5 5 5 5 4 4 4 4 4 4 4 4
4 5 7 6 4 4 5 5 5 5 6 5 4 5 6 4 4 4 4 4 4 5 5 5 5 5 5 5 5 5 5 5 5 5 5 4 4 4 4 4 4 4 4 4
4 5 6 6 4 4 5 5 5 5 5 4 4 6 6 3 3 3 3 4 4 4 4 5 5 5 5 5 5 5 5 4 4 4 4 4 4 4 4 4 4 3 3 3
3 5 6 5 3 4 5 6 4 4 4 3 4 4 4 3 3 3 3 3 3 4 4 4 4 4 4 4 4 4 4 4 4 4 4 4 4 3 3 3 3 3 3 3
3 4 5 3 3 4 5 3 3 3 3 3 3 2 2 2 2 2 2 3 3 3 3 4 4 4 4 4 4 4 3 3 4 4 4 4 3 3 3 3 2 2 2 2
4 4 3 2 3 2 2 2 2 2 2 2 2 2 2 2 2 2 2 2 2 3 3 3 3 3 3 3 3 3 3 3 3 3 3 3 3 3 2 2 2 2 1 1
2 3 2 1 1 1 2 2 2 2 2 2 1 1 1 1 1 1 1 2 2 2 2 2 3 3 2 2 3 2 2 2 2 2 2 2 2 2 2 1 1 1 1 1
2 2 1 1 1 1 1 1 1 1 1 1 1 1 1 0 0 0 1 1 2 2 2 2 2 2 2 2 2 2 2 2 2 2 2 2 1 1 1 1 1 1 1 1
3 2 2 1 0 1 1 0 0 0 0 0 1 1 0 0 0 0 0 1 1 1 1 1 1 1 1 1 1 1 1 1 1 1 1 1 1 1 1 1 1 1 1 0
-0 -0 -0 -0 -0 -0 -0 -0 -0 0 0 -0 -0 0 -0 -0 -0 -0 0 1 1 1 1 1 1 1 1 1 1 1 1 1 1 1 0 0 0 0 0 0 0 0 0 0
-1 -1 -1 -1 -1 -1 -1 -1 -1 -1 -1 -1 -1 -1 -1 -1 -1 -1 -0 -0 0 1 1 1 1 1 0 0 1 0 0 0 0 0 -0 -0 -0 -0 -1 -1 -0 -0 -0 -0
-2 -2 -2 -2 -1 -1 -1 -1 -1 -1 -1 -1 -1 -1 -1 -1 -1 -1 -1 -1 -0 0 0 0 0 0 0 -0 0 -0 -0 -0 -0 -1 -1 -1 -1 -1 -1 -1 -1 -1 -1 -1
-2 -2 -2 -2 -2 -2 -2 -2 -2 -2 -2 -2 -2 -2 -2 -1 -1 -1 -1 -1 -0 -0 -0 -0 -0 -0 -0 -0 -0 -0 -1 -1 -1 -1 -1 -1 -2 -2 -2 -2 -2 -2 -2 -2
-3 -4 -3 -3 -3 -3 -3 -3 -3 -3 -2 -2 -2 -2 -2 -2 -2 -2 -1 -1 -1 -1 -1 -1 -1 -1 -1 -1 -1 -1 -1 -1 -1 -1 -2 -2 -2 -2 -2 -2 -2 -2 -2 -2
-3 -3 -3 -3 -3 -3 -3 -3 -3 -3 -3 -3 -3 -3 -3 -2 -2 -2 -2 -2 -1 -1 -1 -1 -1 -1 -1 -1 -1 -1 -1 -2 -2 -2 -2 -2 -2 -2 -3 -3 -3 -3 -3 -3
-3 -3 -3 -3 -3 -3 -4 -4 -4 -3 -3 -3 -3 -3 -3 -3 -3 -2 -2 -2 -2 -2 -2 -2 -2 -2 -2 -2 -2 -2 -2 -2 -2 -3 -3 -3 -3 -3 -3 -3 -3 -3 -3 -3
-4 -4 -4 -4 -4 -4 -4 -4 -4 -4 -4 -4 -4 -4 -4 -3 -3 -3 -3 -3 -3 -3 -3 -3 -2 -2 -2 -3 -3 -3 -3 -3 -3 -3 -3 -3 -3 -4 -4 -4 -4 -4 -4 -4
-5 -4 -4 -4 -4 -4 -4 -4 -4 -5 -5 -5 -4 -4 -4 -4 -4 -4 -4 -4 -4 -4 -4 -4 -3 -3 -3 -3 -3 -3 -4 -4 -4 -4 -4 -4 -4 -4 -4 -4 -4 -4 -4 -4
-5 -5 -5 -5 -5 -5 -5 -5 -5 -5 -5 -5 -5 -5 -5 -5 -5 -5 -4 -4 -4 -4 -4 -4 -4 -4 -4 -4 -4 -4 -4 -4 -4 -4 -4 -4 -4 -4 -4 -5 -5 -5 -5 -5
-6 -6 -6 -6 -6 -5 -5 -5 -5 -5 -5 -5 -5 -5 -5 -5 -5 -5 -5 -5 -5 -5 -5 -5 -5 -5 -5 -5 -5 -5 -5 -5 -5 -5 -5 -5 -5 -5 -5 -5 -5 -5 -5 -5
-6 -6 -6 -6 -6 -6 -6 -6 -6 -6 -6 -6 -6 -6 -6 -6 -6 -6 -6 -6 -6 -6 -6 -5 -5 -5 -5 -5 -5 -5 -5 -5 -5 -5 -5 -5 -5 -5 -5 -5 -6 -6 -6 -6
-7 -7 -7 -7 -7 -7 -7 -7 -7 -7 -7 -7 -7 -7 -7 -7 -6 -6 -6 -6 -6 -6 -6 -6 -6 -6 -6 -5 -5 -5 -5 -5 -5 -6 -6 -6 -6 -6 -6 -6 -6 -6 -6 -6
-8 -8 -8 -8 -8 -8 -8 -8 -8 -8 -8 -8 -8 -8 -7 -7 -7 -7 -7 -7 -7 -7 -6 -6 -6 -6 -6 -6 -6 -6 -6 -6 -6 -6 -6 -6 -6 -6 -6 -6 -6 -6 -6 -6
-8 -8 -8 -8 -8 -8 -8 -8 -8 -8 -8 -8 -8 -8 -8 -8 -7 -7 -7 -7 -7 -7 -7 -6 -6 -6 -6 -6 -6 -6 -6 -6 -6 -6 -6 -6 -6 -6 -6 -6 -6 -6 -6 -6
Wind_Speed
6 6 6 9 13 14 13 13 11 11 11 9 7 5 4 3 2 1 1 2 2 3 3 3 3 3 4 4 4 3 4 4 4 4 3 3 3 3 3 3 3 2 2 3
5 5 6 8 11 14 14 13 13 12 12 7 5 4 4 4 3 2 3 3 3 4 4 4 4 4 4 4 4 3 4 4 3 3 3 3 3 3 3 3 2 2 2 2
4 4 4 7 9 11 9 11 10 11 8 3 5 6 6 5 4 4 4 5 4 4 4 5 5 4 4 4 4 3 3 3 3 3 2 3 3 3 3 3 2 1 1 1
2 3 7 2 1 6 7 7 7 5 4 4 5 6 6 4 3 4 5 5 5 5 5 5 5 4 3 3 3 3 2 2 2 2 2 2 2 2 3 2 1 1 1 1
3 4 6 3 1 2 6 7 7 7 5 3 3 3 4 2 3 4 4 4 4 4 4 4 3 3 1 1 1 1 2 2 2 2 2 2 2 2 2 1 1 0 0 0
3 4 5 2 1 2 3 4 3 6 6 3 1 3 3 3 5 4 3 3 3 4 4 3 3 2 0 0 1 1 2 2 2 2 2 2 2 1 1 0 0 1 1 1
5 5 5 2 2 1 4 3 2 4 5 5 4 3 3 3 3 3 3 3 3 3 3 4 3 1 1 1 1 1 1 0 0 0 0 1 0 0 1 1 1 2 2 2
4 6 5 1 2 3 3 4 1 0 2 3 2 2 2 2 2 3 3 3 3 3 3 4 3 1 1 1 1 1 1 1 1 1 1 1 2 1 1 2 2 2 3 3
5 4 3 2 2 4 4 2 2 1 1 1 1 1 2 2 2 3 3 3 2 2 3 4 3 3 2 2 2 1 2 2 2 2 2 2 2 2 2 2 2 1 2 2
4 5 4 3 4 4 4 3 3 2 1 0 1 1 2 2 2 2 3 2 2 2 3 4 4 3 3 3 2 2 3 3 3 3 3 3 2 2 2 2 1 1 1 1
5 5 4 4 4 4 4 3 3 3 2 1 0 1 1 2 2 2 2 2 2 2 2 3 3 3 4 3 2 3 3 3 3 3 3 3 3 2 2 1 1 0 0 0
4 4 4 4 4 3 2 3 2 2 2 2 1 0 1 1 1 1 2 2 2 2 3 3 3 3 4 3 3 3 2 2 2 2 2 2 2 3 5 4 4 4 3 2
4 4 4 3 2 2 2 3 3 2 2 1 1 0 0 1 1 2 2 2 2 2 2 2 3 3 4 3 3 3 3 2 2 2 2 2 2 2 2 4 5 5 5 5
3 2 2 2 3 3 2 2 2 2 2 1 1 0 1 1 1 2 2 2 2 2 2 2 3 3 3 3 3 3 3 3 3 2 2 1 1 1 1 2 2 3 4 4
3 3 2 2 2 2 2 1 1 2 2 2 1 1 0 1 1 2 2 2 2 2 2 2 3 3 3 3 3 3 3 2 2 2 2 2 2 2 2 2 2 2 3 3
4 2 0 1 1 1 1 1 1 2 2 1 1 1 1 1 1 2 2 2 2 2 2 2 2 3 3 2 2 2 3 4 3 2 2 2 2 2 2 2 2 2 2 3
2 2 2 2 3 3 3 3 3 3 2 2 1 1 1 1 1 1 2 2 2 2 2 2 2 2 2 2 2 2 2 2 3 2 2 2 2 2 2 2 2 2 3 4
3 4 4 4 4 4 3 3 2 2 2 2 1 1 1 0 0 1 2 2 2 3 3 3 2 2 2 2 2 2 2 1 2 2 2 2 2 2 2 2 2 3 3 4
2 2 2 2 2 3 3 2 2 2 2 1 1 1 1 1 1 0 1 1 2 2 2 2 2 2 2 2 2 1 1 1 1 1 1 2 2 2 2 2 3 3 3 3
3 3 2 1 1 1 1 2 1 1 1 0 1 1 1 0 1 1 1 1 1 1 1 1 1 1 1 1 1 1 1 1 1 1 1 1 2 2 2 2 3 3 3 4
3 3 3 2 2 2 1 1 1 1 1 0 1 1 1 0 0 1 1 1 2 2 2 2 1 1 1 1 1 0 0 0 1 1 1 2 2 2 2 3 3 3 4 4
3 3 3 2 2 2 2 1 1 0 0 0 0 1 1 1 0 0 1 0 1 2 2 1 1 1 1 0 0 0 0 1 1 1 2 2 2 2 3 3 4 4 4 4
3 2 2 2 2 2 2 2 1 1 0 0 0 1 1 1 1 1 1 1 0 1 1 1 1 1 1 1 1 1 1 1 2 2 2 3 3 3 3 4 4 4 4 4
3 2 2 2 1 1 2 2 2 1 1 1 1 0 0 0 1 1 1 1 1 2 1 1 2 1 1 1 1 1 1 2 2 2 3 3 3 3 3 4 4 4 4 5
2 2 2 2 2 1 1 2 2 2 2 1 2 2 1 1 1 1 1 1 1 2 1 2 2 2 1 1 1 1 1 2 2 2 3 3 3 3 3 4 4 4 5 5
2 1 1 2 1 1 1 1 1 1 1 1 2 2 2 2 1 1 1 1 1 2 2 1 1 2 1 1 2 2 2 2 3 3 3 3 4 4 4 4 5 5 5 5
2 2 1 2 2 1 1 1 1 1 1 1 1 2 2 2 2 2 2 1 1 2 2 2 2 2 2 2 2 2 2 3 3 3 3 3 3 4 4 5 4 4 5 5
Wind_Direction
270 277 248 239 226 218 223 229 234 242 243 251 256 263 269 278 285 279 300 306 302 287 282 281 278 268 256 252 245 237 234 239 245 247 251 251 253 249 253 257 256 265 275 283
269 267 255 250 234 222 227 235 241 253 257 266 269 265 259 264 268 274 294 300 301 295 293 284 276 268 260 251 245 236 232 235 242 244 242 248 249 242 245 253 255 271 284 292
244 276 266 249 224 212 227 229 226 240 254 264 258 247 249 250 258 278 290 293 291 288 284 283 278 264 252 244 237 229 230 234 237 243 244 248 246 244 243 245 250 267 296 317
210 222 229 238 98 201 217 223 217 245 271 258 260 263 260 243 261 286 294 293 292 290 291 291 291 283 257 234 225 219 223 234 235 231 245 256 248 252 251 246 243 254 298 326
205 235 259 261 205 206 216 238 223 242 257 277 321 282 243 262 295 290 291 299 303 302 303 303 304 300 259 219 203 207 233 237 237 224 226 238 247 255 250 255 265 246 348 9
219 236 238 292 335 281 223 244 219 231 238 236 234 250 262 320 309 303 308 315 317 322 326 328 325 309 230 168 191 241 255 257 257 227 209 219 232 257 293 265 237 84 67 49
234 246 258 330 8 150 206 290 306 224 220 209 225 268 304 304 303 312 330 337 337 339 344 338 329 322 70 59 328 309 298 270 340 332 239 216 210 132 79 60 63 63 61 48
218 232 247 82 133 210 305 337 330 271 221 223 251 322 340 335 327 336 347 351 354 356 359 357 1 23 61 26 346 6 62 67 50 42 41 49 73 75 89 84 73 57 50 39
219 241 316 214 260 312 330 333 338 341 308 223 241 300 328 334 339 346 353 355 360 10 10 11 16 25 41 15 14 43 70 68 62 55 51 53 72 82 83 81 82 66 55 39
251 270 280 271 318 332 333 330 335 348 346 236 255 298 320 332 340 349 356 358 2 15 20 16 15 20 30 35 45 68 70 64 59 60 56 50 50 64 81 83 84 76 57 37
263 287 297 285 299 318 327 343 359 5 358 324 211 294 312 315 328 342 347 354 4 11 15 12 16 25 29 35 58 76 74 66 60 57 57 55 55 53 59 49 50 95 96 43
260 273 271 280 292 302 303 314 323 341 346 347 345 331 326 329 335 342 351 1 10 18 22 21 29 33 31 33 53 74 76 66 64 64 60 56 58 51 46 44 36 32 32 27
288 297 292 292 303 323 313 307 309 312 306 319 338 358 340 354 353 357 4 14 15 11 18 32 47 44 33 35 53 65 67 61 62 64 64 61 60 61 46 35 34 34 33 32
306 312 298 308 308 319 327 328 328 343 344 339 5 24 37 27 5 3 356 352 1 20 25 38 49 44 31 38 55 63 64 55 54 57 56 52 53 49 46 31 15 11 17 28
313 312 296 309 330 342 346 347 1 358 353 3 17 23 41 14 347 343 344 353 18 32 29 34 39 35 30 41 56 59 57 50 48 49 48 44 42 43 37 24 8 354 358 6
309 311 13 7 336 327 326 317 306 303 310 320 327 327 324 329 338 347 358 13 33 30 21 27 29 23 25 37 56 60 57 46 38 46 46 38 35 37 30 16 3 352 349 348
305 290 286 290 291 285 280 277 272 278 288 285 282 297 316 2 20 10 7 15 31 34 36 39 30 25 28 37 54 60 59 51 40 45 43 33 27 22 13 5 353 342 340 346
273 258 250 246 251 259 271 277 272 272 278 279 272 255 247 235 248 334 359 21 41 48 40 42 45 39 36 37 50 59 60 50 40 42 35 27 19 6 358 353 345 339 335 338
314 296 282 275 259 240 248 260 268 276 280 259 237 231 233 231 213 102 42 50 53 38 18 35 47 48 39 33 38 57 57 51 41 34 27 16 6 354 345 340 334 330 326 324
337 343 340 333 324 275 263 275 283 288 291 245 185 157 158 160 128 112 90 48 9 348 350 18 34 29 24 28 31 52 61 52 28 4 354 346 336 327 322 320 316 314 313 311
345 351 360 3 2 356 338 305 275 278 293 216 171 170 172 166 143 144 128 44 6 23 23 21 16 2 359 17 30 36 44 8 323 314 312 309 307 307 310 310 307 306 305 304
343 346 352 359 6 359 352 347 338 324 323 84 101 135 145 150 132 68 16 298 323 359 357 344 337 331 327 322 299 299 293 290 293 292 289 289 289 293 299 302 301 301 300 300
335 338 346 352 350 344 357 3 357 2 354 283 174 186 193 214 219 201 298 341 329 331 330 312 311 320 328 324 303 285 283 284 286 284 282 283 285 288 291 293 294 294 296 298
341 345 352 359 9 18 9 354 357 8 14 358 349 309 248 261 335 333 286 285 315 319 316 302 314 317 323 317 299 289 283 282 281 279 279 280 281 284 287 290 291 292 292 293
346 353 6 13 15 3 353 1 22 35 35 29 18 6 347 321 285 295 299 286 301 324 316 305 318 323 321 300 281 274 277 276 276 277 277 280 281 283 286 288 289 289 289 289
353 349 344 339 334 329 338 4 26 16 24 18 3 358 359 358 351 330 326 319 311 317 311 300 299 309 300 284 274 273 274 278 281 280 277 278 279 280 281 284 286 284 285 287
13 8 7 7 5 5 7 15 28 357 349 0 346 343 350 351 350 347 340 325 316 312 303 295 293 291 287 282 276 275 273 274 276 276 275 274 273 274 276 278 280 282 283 284
Height
1441 1440 1438 1437 1437 1440 1440 1433 1429 1423 1425 1425 1428 1431 1433 1433 1434 1434 1433 1432 1432 1431 1430 1430 1429 1429 1428 1428 1428 1428 1427 1426 1426 1425 1425 1424 1423 1423 1422 1422 1421 1420 1419 1417
1441 1439 1437 1435 1433 1433 1434 1432 1429 1428 1426 1427 1429 1431 1432 1432 1432 1432 1432 1431 1430 1429 1428 1427 1426 1426 1425 1425 1425 1425 1424 1424 1424 1423 1422 1421 1421 1420 1420 1419 1418 1418 1416 1415
1435 1438 1434 1428 1428 1430 1430 1428 1428 1427 1425 1429 1429 1429 1429 1430 1430 1430 1430 1429 1429 1427 1426 1425 1424 1423 1423 1422 1422 1422 1422 1422 1421 1420 1420 1419 1419 1418 1417 1417 1416 1415 1415 1414
1437 1437 1431 1421 1425 1425 1426 1427 1428 1427 1427 1428 1428 1428 1428 1428 1428 1428 1428 1427 1426 1425 1424 1423 1422 1421 1420 1420 1420 1419 1419 1419 1419 1418 1418 1417 1417 1416 1416 1415 1414 1414 1413 1413
1434 1427 1418 1421 1426 1427 1426 1424 1426 1426 1426 1427 1428 1426 1425 1426 1426 1426 1425 1425 1424 1423 1422 1420 1419 1418 1418 1417 1417 1417 1417 1416 1416 1416 1416 1415 1414 1414 1414 1413 1413 1412 1412 1411
1434 1426 1420 1418 1424 1424 1424 1420 1421 1423 1424 1425 1426 1424 1422 1423 1423 1423 1423 1422 1421 1420 1419 1418 1417 1416 1416 1415 1415 1414 1414 1414 1414 1414 1414 1413 1413 1413 1412 1412 1411 1411 1411 1411
1431 1425 1417 1422 1424 1424 1423 1418 1420 1420 1421 1423 1423 1424 1424 1422 1422 1421 1421 1420 1419 1418 1417 1416 1415 1415 1414 1413 1413 1412 1412 1412 1412 1412 1412 1412 1411 1411 1411 1410 1410 1410 1410 1410
1429 1425 1422 1424 1424 1424 1420 1420 1419 1419 1420 1421 1421 1422 1421 1421 1420 1420 1419 1418 1417 1417 1415 1415 1414 1413 1412 1411 1411 1411 1411 1411 1411 1411 1410 1410 1410 1410 1410 1410 1409 1408 1408 1409
1425 1423 1423 1423 1423 1422 1421 1420 1419 1419 1419 1420 1420 1420 1420 1420 1419 1418 1418 1417 1416 1415 1414 1413 1413 1412 1411 1411 1410 1410 1410 1409 1409 1409 1409 1409 1409 1408 1408 1408 1408 1408 1407 1407
1425 1422 1423 1423 1422 1422 1421 1420 1420 1419 1419 1418 1419 1418 1418 1418 1418 1417 1417 1416 1415 1415 1413 1413 1412 1412 1411 1411 1410 1409 1409 1409 1409 1408 1408 1408 1408 1408 1408 1408 1407 1407 1407 1407
1423 1422 1422 1421 1421 1421 1420 1419 1419 1418 1418 1418 1418 1418 1417 1417 1417 1416 1416 1415 1415 1414 1413 1412 1412 1411 1411 1410 1410 1410 1409 1409 1409 1409 1408 1408 1408 1407 1407 1407 1407 1407 1407 1407
1419 1420 1420 1420 1420 1420 1419 1418 1418 1417 1417 1417 1417 1417 1416 1416 1416 1415 1415 1414 1414 1414 1413 1412 1412 1411 1411 1410 1410 1410 1409 1409 1409 1409 1409 1408 1407 1407 1408 1408 1408 1408 1407 1407
1420 1419 1419 1418 1418 1418 1418 1417 1417 1416 1416 1416 1416 1416 1416 1415 1414 1414 1414 1413 1413 1413 1412 1412 1411 1411 1411 1410 1410 1410 1409 1409 1409 1409 1409 1408 1408 1407 1407 1408 1408 1408 1408 1407
1418 1418 1417 1416 1416 1416 1416 1416 1416 1416 1415 1415 1415 1415 1415 1414 1414 1413 1413 1413 1413 1412 1412 1411 1411 1411 1411 1411 1410 1410 1409 1409 1409 1409 1409 1409 1408 1408 1407 1407 1407 1407 1407 1407
1417 1417 1416 1415 1415 1415 1415 1415 1415 1414 1414 1413 1413 1413 1413 1413 1413 1412 1412 1412 1412 1412 1411 1411 1411 1411 1411 1411 1410 1410 1410 1409 1410 1409 1409 1409 1409 1408 1408 1407 1407 1407 1406 1406
1415 1414 1414 1414 1414 1413 1414 1413 1413 1413 1412 1412 1412 1412 1412 1412 1412 1411 1411 1411 1411 1410 1411 1411 1411 1411 1411 1410 1410 1410 1410 1410 1410 1409 1409 1409 1409 1408 1408 1407 1407 1406 1405 1405
1413 1412 1412 1411 1411 1411 1411 1411 1411 1411 1411 1410 1410 1410 1410 1410 1410 1410 1410 1410 1410 1410 1410 1410 1410 1410 1410 1410 1410 1410 1410 1410 1410 1409 1409 1409 1408 1408 1407 1407 1406 1406 1405 1404
1411 1410 1410 1409 1408 1408 1408 1409 1409 1409 1408 1408 1408 1408 1408 1408 1407 1408 1408 1409 1409 1409 1410 1410 1410 1410 1410 1410 1410 1409 1409 1409 1409 1409 1408 1408 1408 1407 1407 1406 1406 1405 1404 1403
1409 1408 1408 1407 1406 1406 1406 1406 1406 1406 1406 1406 1406 1406 1406 1406 1406 1406 1407 1407 1408 1408 1409 1409 1409 1409 1409 1409 1409 1409 1409 1409 1408 1408 1408 1407 1407 1406 1406 1405 1404 1404 1402 1401
1407 1406 1405 1405 1405 1405 1405 1404 1404 1404 1404 1404 1404 1404 1404 1404 1405 1405 1406 1406 1406 1407 1407 1408 1408 1408 1408 1408 1408 1408 1408 1408 1407 1407 1407 1406 1406 1405 1404 1404 1403 1402 1401 1399
1405 1404 1403 1403 1403 1403 1403 1403 1402 1402 1402 1402 1402 1402 1402 1402 1403 1404 1404 1404 1406 1406 1406 1406 1406 1406 1406 1406 1407 1407 1407 1406 1406 1406 1405 1405 1404 1403 1402 1401 1400 1399 1398 1397
1403 1403 1402 1402 1401 1401 1401 1401 1401 1400 1400 1399 1400 1400 1400 1401 1401 1402 1403 1403 1404 1404 1404 1405 1405 1405 1405 1405 1405 1405 1405 1405 1404 1404 1403 1403 1402 1401 1400 1399 1398 1397 1396 1394
1403 1402 1401 1401 1400 1400 1400 1399 1399 1399 1398 1398 1398 1398 1398 1398 1399 1400 1400 1401 1402 1402 1403 1403 1403 1403 1403 1403 1403 1403 1403 1403 1402 1401 1401 1400 1399 1398 1397 1396 1395 1394 1393 1391
1402 1401 1400 1400 1399 1399 1398 1398 1397 1397 1397 1397 1397 1397 1397 1397 1397 1398 1399 1399 1400 1400 1400 1401 1401 1401 1401 1401 1401 1401 1400 1400 1399 1399 1398 1397 1396 1395 1394 1393 1392 1391 1389 1388
1401 1400 1399 1398 1398 1397 1396 1396 1395 1395 1395 1395 1395 1395 1395 1396 1396 1396 1397 1397 1398 1398 1398 1398 1398 1398 1398 1398 1398 1398 1397 1397 1396 1396 1395 1394 1393 1392 1391 1390 1389 1387 1386 1385
1400 1399 1398 1397 1397 1396 1395 1395 1394 1394 1394 1394 1394 1394 1394 1394 1395 1395 1395 1395 1395 1395 1395 1395 1395 1395 1395 1395 1395 1395 1394 1394 1393 1393 1392 1391 1390 1389 1388 1387 1386 1384 1383 1382
1399 1398 1397 1396 1396 1395 1395 1394 1394 1393 1393 1393 1392 1392 1393 1393 1393 1393 1393 1393 1393 1393 1392 1392 1392 1392 1392 1392 1392 1391 1391 1390 1390 1389 1388 1387 1386 1385 1384 1383 1382 1381 1380 1379